Regional Weather Roundup
Issued by NWS Northern Indiana

Home | Current Version | Previous Version | Graphics & Text | Print | Product List | Glossary On
Versions: 1 2 3 4 5 6 7 8 9 10 11 12 13 14 15 16 17 18 19 20 21 22 23 24 25 26 27 28 29 30 31 32 33 34 35 36 37 38 39 40 41 42 43 44 45 46 47 48 49 50
000
ASUS43 KIWX 271010
RWRIWX

KIWX WEATHER ROUNDUP
NATIONAL WEATHER SERVICE NORTHERN INDIANA
600 AM EDT THU JUL 27 2017

NOTE: "FAIR" INDICATES FEW OR NO CLOUDS BELOW 12,000 FEET WITH NO
SIGNIFICANT WEATHER AND/OR OBSTRUCTIONS TO VISIBILITY.

* THESE STATIONS ARE NOT UNDER NWS QUALITY CONTROL. THEY ALSO MAY NOT
  REPORT WEATHER SUCH AS PRECIPITATION OR FOG.

INZ001>027-271100-
NORTHERN INDIANA

CITY           SKY/WX    TMP DP  RH WIND       PRES   REMARKS
GARY*          CLOUDY    73  73 100 CALM      29.93R FOG
VALPARAISO     CLOUDY    73  72  96 SW3       29.93R
MICHIGAN CITY* CLOUDY    72  70  94 S6        29.93R
LAPORTE*       CLOUDY    71  69  95 CALM      29.94R
KNOX*          CLOUDY    70  70 100 CALM      29.93R
SOUTH BEND     CLOUDY    73  68  84 S7        29.93R
GOSHEN         CLOUDY    72  66  81 SE5       29.93S
MONTICELLO*    CLOUDY    71  70  96 SW3       29.93R
LOGANSPORT*    CLOUDY    70  70 100 CALM      29.94S FOG
ROCHESTER*     CLOUDY    72  72 100 S6        29.93S
WARSAW*        CLOUDY    70  70 100 CALM      29.92F
AUBURN*        DRIZZLE   70  64  83 CALM      29.95F
FORT WAYNE     LGT RAIN  70  67  90 SE6       29.96F
HUNTINGTON*    CLOUDY    69  68  96 CALM      29.95F FOG
PERU/GRISSOM   CLOUDY    71  71 100 CALM      29.93S
MARION*        CLOUDY    70  70 100 CALM      29.95R

$$
INZ028>050-271100-
CENTRAL INDIANA

CITY           SKY/WX    TMP DP  RH WIND       PRES   REMARKS
LAFAYETTE      CLOUDY    71  71 100 CALM      29.93R
KOKOMO*        CLOUDY    71  70  96 CALM      29.95S
MUNCIE*        CLOUDY    73  70  90 SE3       29.96S
INDIANAPOLIS   CLOUDY    74  72  93 SW12      29.95R

$$
MIZ043>046-050>051-056>058-064>065-071>073-077>080-271100-
SOUTHWEST LOWER MICHIGAN

CITY           SKY/WX    TMP DP  RH WIND       PRES   REMARKS
BATTLE CREEK   CLOUDY    67  64  90 CALM      29.96R
BENTON HARBOR  CLOUDY    70  66  87 CALM      29.92R
COLDWATER*     CLOUDY    67  67  99 CALM      29.95S
HILLSDALE*     CLOUDY    64  61  88 CALM      29.96S
HOLLAND        CLOUDY    70  67  90 SE3       29.94S
GRAND RAPIDS   CLOUDY    71  66  84 CALM      29.94S
KALAMAZOO      CLOUDY    67  62  84 CALM      29.95R
STURGIS*       CLOUDY    69  66  90 SE3       29.93F
THREE RIVERS*  FAIR      66  65  94 CALM      29.94S

$$
OHZ001>008-015>018-024>025-271100-
NORTHWEST OHIO

CITY           SKY/WX    TMP DP  RH WIND       PRES   REMARKS
WAUSEON*       FAIR      66  64  94 CALM      29.96S
DEFIANCE       CLOUDY    68  64  87 CALM      29.95F
FINDLAY        CLOUDY    68  62  81 S6        29.95F
TOLEDO EXPRESS CLOUDY    66  66 100 CALM      29.95S
TOLEDO METCALF CLOUDY    67  66  97 CALM      29.96S
LIMA           MOCLDY    68  64  87 S7        29.96F

$$
AND FOR LAKE MICHIGAN COASTAL AND OPEN LAKE BUOY OBSERVATIONS

STATION/POSITION TEMP    WIND        PRES    VSBY  WAVE
                 AIR SEA DIR/SP/G                  HT/PER
                 (F)     (DEG/KT/KT) (MB)    (MI)  (FT/S)
CALUMET HARBOR    73     290/  2/  3 1012.8R
MICHIGAN CITY     73     190/  6/  7   N/A
BURNS HARBOR      72     190/  6/  8 1013.5R
SAINT JOSEPH      71      CALM  /  2 1014.2
SOUTH LAKE BUOY   71 71   30/ 10/ 12 1013.2R         0
4 MI NW BRIDGMAN  74 74  210/  4/  4 1012.9          1
MICHIGAN CITY     73 74  230/  6/  8   N/A           1

$$
&&




USA.gov is the U.S. government's official web portal to all federal, state and local government web resources and services.